User: anonymous   Login
Location: Holcomb Observatory
(44.4922°N, 73.1654°W)
Time: 21:07:25
(UTC-04:00)
Language:

Cosmos 1727 Rocket - Orbit

View from above orbital plane
View from above orbital plane
View from above satellite
View from above satellite

Ground track
Ground track

The orbit data is extracted from the following two-line orbital elements,

1 16511U 86008B   15087.18939954  .00000026  00000-0  11492-4 0  9994
2 16511 082.9412 102.0907 0025076 033.9632 036.0057 13.75788412464626
Epoch (UTC): 28 March 2015 04:32:44
Eccentricity: 0.0025076
inclination: 82.9412°
perigee height: 960 km
apogee height: 997 km
right ascension of ascending node: 102.0907°
argument of perigee: 33.9632°
revolutions per day: 13.75788412
mean anomaly at epoch: 36.0057°
orbit number at epoch: 46462

The dashed part of the orbit path shows where the satellite is in the earth's shadow,  

DLR